Вернуться в каталог

COSMOS 1275 DEB

АктивенPO
NORAD 19026·DEBRIS·🇷🇺 Russia

Запущен Jun 4, 1981 с Plesetsk Cosmodrome

Loading…

Ближайшие Пролёты (ближайшие 24 часа)

TLE

СвежийSource: Space-Track

Эпоха: Sep 12, 2026, 22:57 UTC

1 19026U 81053MD  26255.95669270  .00000967  00000-0  88476-3 0  9997
2 19026  83.1619  77.5452 0112510 209.0028 305.5681 13.79340418 63602

Отслеживайте COSMOS 1275 DEB в реальном времени с AllMySat

Download on the App Store